TimeMST,TemperatureF,Dew PointF,Humidity,Sea Level PressureIn,VisibilityMPH,Wind Direction,Wind SpeedMPH,Gust SpeedMPH,PrecipitationIn,Events,Conditions,WindDirDegrees,DateUTC
12:53 AM,8.1,1.9,76,30.58,10.0,Calm,Calm,-,N/A,,Clear,0,2013-01-20 07:53:00
1:53 AM,10.0,3.0,73,30.56,10.0,NNE,4.6,-,N/A,,Clear,20,2013-01-20 08:53:00
2:53 AM,8.1,1.0,73,30.58,10.0,NNE,3.5,-,N/A,,Clear,30,2013-01-20 09:53:00
3:53 AM,9.0,1.9,73,30.56,10.0,NNE,5.8,-,N/A,,Clear,20,2013-01-20 10:53:00
4:53 AM,6.1,-0.9,73,30.55,10.0,Calm,Calm,-,N/A,,Clear,0,2013-01-20 11:53:00
5:53 AM,6.1,-0.9,73,30.59,10.0,NE,4.6,-,N/A,,Clear,40,2013-01-20 12:53:00
6:53 AM,6.1,-0.9,73,30.63,10.0,ENE,3.5,-,N/A,,Clear,70,2013-01-20 13:53:00
7:53 AM,7.0,-0.0,73,30.65,10.0,Calm,Calm,-,N/A,,Clear,0,2013-01-20 14:53:00
8:53 AM,19.9,6.1,55,30.60,10.0,Calm,Calm,-,N/A,,Clear,0,2013-01-20 15:53:00
9:53 AM,18.0,6.1,60,30.63,10.0,Calm,Calm,-,N/A,,Clear,0,2013-01-20 16:53:00
11:53 AM,26.1,10.9,53,30.57,10.0,SW,4.6,-,N/A,,Clear,230,2013-01-20 18:53:00
12:53 PM,26.1,10.0,51,30.54,10.0,Calm,Calm,-,N/A,,Clear,0,2013-01-20 19:53:00
1:53 PM,28.0,14.0,56,30.50,10.0,Calm,Calm,-,N/A,,Clear,0,2013-01-20 20:53:00
2:53 PM,25.0,12.0,58,30.51,10.0,Calm,Calm,-,N/A,,Clear,0,2013-01-20 21:53:00
3:53 PM,28.0,10.9,49,30.49,10.0,Calm,Calm,-,N/A,,Clear,0,2013-01-20 22:53:00
4:53 PM,26.1,12.0,55,30.51,10.0,Calm,Calm,-,N/A,,Clear,0,2013-01-20 23:53:00
5:53 PM,18.0,8.1,65,30.55,10.0,North,3.5,-,N/A,,Clear,10,2013-01-21 00:53:00
6:53 PM,15.1,7.0,70,30.57,10.0,Calm,Calm,-,N/A,,Clear,0,2013-01-21 01:53:00
7:53 PM,14.0,6.1,71,30.58,10.0,NNE,5.8,-,N/A,,Clear,30,2013-01-21 02:53:00
8:53 PM,14.0,6.1,71,30.53,10.0,Calm,Calm,-,N/A,,Clear,0,2013-01-21 03:53:00
9:53 PM,12.0,3.9,70,30.55,10.0,North,3.5,-,N/A,,Clear,10,2013-01-21 04:53:00
10:53 PM,12.0,3.9,70,30.54,10.0,Calm,Calm,-,N/A,,Clear,0,2013-01-21 05:53:00
11:53 PM,17.1,6.1,62,30.50,10.0,Calm,Calm,-,N/A,,Clear,0,2013-01-21 06:53:00